Location: Unspecified
(50.0000°N, 15.0000°E)
Time: 04:10:59
(UTC+01:00)

ISS - Pass Details

Date: 04 December 2021
Orbit: 413 x 422 km, 51.6° (Epoch: 22 January)

Event Time Altitude Azimuth Distance (km) Brightness Sun altitude
Rises 17:50:59 0° 288° (WNW) 2,385 1.1 -17.0°
Reaches altitude 10° 17:53:08 10° 283° (WNW) 1,516 0.0 -17.3°
Maximum altitude 17:56:26 50° 207° (SSW) 545 -3.0 -17.9°
Enters shadow 17:57:53 28° 145° (SE) 823 -2.5 -18.1°
